Location: Davayat
(45.9471°N, 3.1105°E)
Time: 17:38:43
(UTC+00:00)

Cosmos 2237 Rocket - Pass Details

Date: 01 December 2020
Orbit: 833 x 851 km, 71.0° (Epoch: 17 January)

Event Time Altitude Azimuth Distance (km) Brightness Sun altitude
Rises 17:41:50 0° 254° (WSW) 3,377 7.2 -16.4°
Reaches altitude 10° 17:45:00 10° 271° (W) 2,449 5.8 -16.9°
Maximum altitude 17:48:57 19° 316° (NW) 1,891 4.4 -17.6°
Drops below altitude 10° 17:52:55 10° 1° (N) 2,465 4.5 -18.3°
Enters shadow 17:54:55 - 14° (NNE) 3,027 4.8 -18.6°
